| time (UTC) | temp F | wind direction | speed MPH | gust MPH | rain 1hr in | rain 24hr in | rain mn in | humidity % | barometer mb |
| 20260506154431 | 52 | 1 | 11.0 | 14.0 | 0.02 | 0.03 | 0.03 | 91 | 1013.2 |
| 20260506153431 | 51 | 351 | 7.0 | 12.0 | 0.03 | 0.03 | 0.03 | 91 | 1013.8 |
| 20260506151432 | 51 | 342 | 6.0 | 11.0 | 0.03 | 0.03 | 0.03 | 90 | 1014.8 |
| 20260506145433 | 51 | 7 | 8.0 | 11.0 | 0.03 | 0.03 | 0.03 | 87 | 1014.8 |
| 20260506144431 | 51 | 320 | 6.0 | 9.0 | 0.01 | 0.01 | 0.01 | 85 | 1016.1 |
| 20260506143432 | 51 | 335 | 3.0 | 7.0 | 0.00 | 0.00 | 0.00 | 84 | 1015.8 |
| 20260506142431 | 51 | 340 | 5.0 | 9.0 | 0.00 | 0.00 | 0.00 | 84 | 1015.9 |
| 20260506140432 | 52 | 348 | 7.0 | 13.0 | 0.00 | 0.00 | 0.00 | 83 | 1013.9 |
| 20260506135431 | 52 | 339 | 8.0 | 13.0 | 0.00 | 0.00 | 0.00 | 83 | 1014.5 |
| 20260506134433 | 52 | 313 | 10.0 | 14.0 | 0.00 | 0.00 | 0.00 | 83 | 1014.9 |
| 20260506133432 | 52 | 13 | 12.0 | 17.0 | 0.00 | 0.00 | 0.00 | 82 | 1014.0 |
| 20260506131449 | 52 | 359 | 8.0 | 10.0 | 0.00 | 0.00 | 0.00 | 81 | 1013.6 |
| 20260506130531 | 52 | 1 | 7.0 | 12.0 | 0.00 | 0.00 | 0.00 | 81 | 1013.7 |
| 20260506125533 | 53 | 12 | 10.0 | 16.0 | 0.00 | 0.00 | 0.00 | 80 | 1013.0 |
| 20260506124535 | 53 | 353 | 9.0 | 14.0 | 0.00 | 0.00 | 0.00 | 78 | 1012.8 |
| 20260506123531 | 53 | 342 | 11.0 | 17.0 | 0.00 | 0.00 | 0.00 | 78 | 1012.8 |
| 20260506121631 | 54 | 345 | 7.0 | 12.0 | 0.00 | 0.00 | 0.00 | 76 | 1012.9 |
| 20260506120632 | 54 | 352 | 9.0 | 12.0 | 0.00 | 0.00 | 0.00 | 76 | 1012.4 |
| 20260506115631 | 55 | 359 | 11.0 | 15.0 | 0.00 | 0.00 | 0.00 | 77 | 1012.4 |
| 20260506113633 | 55 | 355 | 9.0 | 12.0 | 0.00 | 0.00 | 0.00 | 76 | 1012.2 |
| 20260506112731 | 55 | 354 | 9.0 | 14.0 | 0.00 | 0.00 | 0.00 | 75 | 1012.2 |
| 20260506110831 | 56 | 356 | 7.0 | 13.0 | 0.00 | 0.00 | 0.00 | 75 | 1011.9 |
| 20260506105830 | 56 | 358 | 7.0 | 9.0 | 0.00 | 0.00 | 0.00 | 75 | 1011.5 |
| 20260506104832 | 56 | 346 | 7.0 | 12.0 | 0.00 | 0.00 | 0.00 | 75 | 1011.6 |
| 20260506103830 | 56 | 341 | 7.0 | 11.0 | 0.00 | 0.00 | 0.00 | 75 | 1011.3 |
| 20260506102832 | 56 | 352 | 5.0 | 10.0 | 0.00 | 0.00 | 0.00 | 77 | 1011.2 |
| 20260506101831 | 56 | 328 | 11.0 | 13.0 | 0.00 | 0.00 | 0.00 | 77 | 1011.2 |
| 20260506095931 | 56 | 4 | 6.0 | 9.0 | 0.00 | 0.00 | 0.00 | 75 | 1010.7 |
| 20260506094031 | 57 | 347 | 5.0 | 7.0 | 0.00 | 0.00 | 0.00 | 76 | 1010.5 |
| 20260506093034 | 57 | 342 | 6.0 | 9.0 | 0.00 | 0.00 | 0.00 | 77 | 1010.6 |
| 20260506092030 | 57 | 344 | 5.0 | 9.0 | 0.00 | 0.00 | 0.00 | 77 | 1010.4 |
| 20260506091033 | 57 | 348 | 9.0 | 11.0 | 0.00 | 0.00 | 0.00 | 78 | 1010.3 |
| 20260506090034 | 57 | 340 | 6.0 | 8.0 | 0.00 | 0.00 | 0.00 | 77 | 1010.5 |
| 20260506085047 | 57 | 334 | 7.0 | 10.0 | 0.00 | 0.00 | 0.00 | 78 | 1010.4 |
| 20260506084129 | 57 | 2 | 6.0 | 8.0 | 0.00 | 0.00 | 0.00 | 78 | 1010.3 |
| 20260506083132 | 57 | 357 | 9.0 | 12.0 | 0.00 | 0.00 | 0.00 | 79 | 1010.2 |
| 20260506082147 | 58 | 351 | 9.0 | 12.0 | 0.00 | 0.00 | 0.00 | 78 | 1010.0 |
| 20260506081231 | 58 | 341 | 8.0 | 12.0 | 0.00 | 0.00 | 0.00 | 79 | 1010.0 |
| 20260506080231 | 58 | 345 | 8.0 | 11.0 | 0.00 | 0.00 | 0.00 | 78 | 1010.0 |
| 20260506072247 | 59 | 7 | 5.0 | 7.0 | 0.00 | 0.00 | 0.00 | 80 | 1009.8 |
| 20260506071232 | 59 | 19 | 10.0 | 14.0 | 0.00 | 0.00 | 0.00 | 80 | 1009.6 |
| 20260506070330 | 59 | 28 | 7.0 | 9.0 | 0.00 | 0.00 | 0.00 | 80 | 1009.6 |
| 20260506062431 | 60 | 12 | 10.0 | 13.0 | 0.00 | 0.00 | 0.00 | 79 | 1009.7 |
| 20260506061432 | 60 | 12 | 7.0 | 10.0 | 0.00 | 0.00 | 0.00 | 78 | 1009.6 |
| 20260506060431 | 60 | 11 | 11.0 | 14.0 | 0.00 | 0.00 | 0.00 | 78 | 1009.5 |
| 20260506050432 | 62 | 2 | 8.0 | 12.0 | 0.00 | 0.00 | 0.00 | 76 | 1009.8 |
| 20260506044536 | 64 | 15 | 7.0 | 10.0 | 0.00 | 0.00 | 0.00 | 76 | 1009.7 |
| 20260506043534 | 64 | 357 | 11.0 | 15.0 | 0.00 | 0.00 | 0.00 | 74 | 1009.2 |
| 20260506042534 | 64 | 3 | 6.0 | 10.0 | 0.00 | 0.00 | 0.00 | 74 | 1009.2 |
| 20260506041536 | 65 | 17 | 10.0 | 15.0 | 0.00 | 0.00 | 0.00 | 74 | 1009.6 |
| 20260506040533 | 65 | 12 | 9.0 | 12.0 | 0.00 | 0.00 | 0.00 | 72 | 1009.6 |
| 20260506034535 | 66 | 332 | 10.0 | 14.0 | 0.00 | 0.00 | 0.00 | 73 | 1009.2 |
| 20260506033634 | 66 | 355 | 10.0 | 14.0 | 0.00 | 0.00 | 0.00 | 71 | 1008.7 |
| 20260506032634 | 66 | 347 | 9.0 | 14.0 | 0.00 | 0.00 | 0.00 | 71 | 1008.7 |
| 20260506030650 | 67 | 3 | 10.0 | 14.0 | 0.00 | 0.00 | 0.00 | 71 | 1008.2 |
| 20260506025635 | 67 | 25 | 10.0 | 14.0 | 0.00 | 0.00 | 0.00 | 70 | 1007.9 |
| 20260506023733 | 67 | 10 | 12.0 | 17.0 | 0.00 | 0.00 | 0.00 | 69 | 1007.8 |
| 20260506022733 | 68 | 20 | 9.0 | 12.0 | 0.00 | 0.00 | 0.00 | 70 | 1007.5 |
| 20260506021735 | 69 | 348 | 10.0 | 13.0 | 0.00 | 0.00 | 0.00 | 70 | 1007.4 |
| 20260506020832 | 69 | 330 | 8.0 | 12.0 | 0.00 | 0.00 | 0.00 | 70 | 1007.3 |
| 20260506015833 | 69 | 1 | 9.0 | 16.0 | 0.00 | 0.00 | 0.00 | 69 | 1007.0 |
| 20260506014834 | 70 | 348 | 10.0 | 16.0 | 0.00 | 0.00 | 0.00 | 68 | 1006.8 |
| 20260506012835 | 71 | 331 | 8.0 | 12.0 | 0.00 | 0.00 | 0.00 | 68 | 1006.2 |
| 20260506003949 | 73 | 343 | 9.0 | 14.0 | 0.00 | 0.00 | 0.00 | 64 | 1005.5 |
| 20260506003048 | 74 | 5 | 9.0 | 11.0 | 0.00 | 0.00 | 0.00 | 62 | 1005.4 |
| 20260506002133 | 74 | 341 | 7.0 | 9.0 | 0.00 | 0.00 | 0.00 | 62 | 1005.2 |
| 20260506002034 | 74 | 354 | 7.0 | 10.0 | 0.00 | 0.00 | 0.00 | 62 | 1005.3 |
| 20260506001033 | 75 | 3 | 9.0 | 11.0 | 0.00 | 0.00 | 0.00 | 61 | 1005.0 |
| 20260506000133 | 75 | 332 | 8.0 | 13.0 | 0.00 | 0.00 | 0.00 | 61 | 1005.0 |
| 20260505235135 | 76 | 342 | 11.0 | 13.0 | 0.00 | 0.00 | 0.00 | 60 | 1005.0 |
| 20260505234134 | 77 | 356 | 9.0 | 15.0 | 0.00 | 0.00 | 0.00 | 60 | 1004.8 |
| 20260505232134 | 79 | 340 | 11.0 | 18.0 | 0.00 | 0.00 | 0.00 | 59 | 1004.2 |
| 20260505231135 | 80 | 323 | 11.0 | 17.0 | 0.00 | 0.00 | 0.00 | 60 | 1004.1 |
| 20260505230151 | 82 | 344 | 11.0 | 16.0 | 0.00 | 0.00 | 0.00 | 56 | 1004.3 |
| 20260505225233 | 83 | 344 | 8.0 | 13.0 | 0.00 | 0.00 | 0.00 | 53 | 1004.1 |
| 20260505223234 | 84 | 351 | 6.0 | 10.0 | 0.00 | 0.00 | 0.00 | 48 | 1003.7 |
| 20260505222235 | 85 | 339 | 9.0 | 14.0 | 0.00 | 0.00 | 0.00 | 45 | 1003.7 |
| 20260505221333 | 87 | 350 | 10.0 | 13.0 | 0.00 | 0.00 | 0.00 | 44 | 1003.6 |
| 20260505220333 | 91 | 333 | 10.0 | 14.0 | 0.00 | 0.00 | 0.00 | 43 | 1003.6 |
| 20260505215333 | 91 | 282 | 3.0 | 4.0 | 0.00 | 0.00 | 0.00 | 44 | 1003.3 |
| 20260505214334 | 90 | 282 | 0.0 | 2.0 | 0.00 | 0.00 | 0.00 | 45 | 1003.5 |
| 20260505213333 | 90 | 292 | 4.0 | 6.0 | 0.00 | 0.00 | 0.00 | 43 | 1003.6 |
| 20260505212347 | 89 | 294 | 5.0 | 8.0 | 0.00 | 0.00 | 0.00 | 44 | 1003.5 |
| 20260505211434 | 89 | 269 | 8.0 | 13.0 | 0.00 | 0.00 | 0.00 | 43 | 1003.5 |
| 20260505210532 | 89 | 282 | 3.0 | 6.0 | 0.00 | 0.00 | 0.00 | 43 | 1003.7 |
| 20260505205534 | 90 | 256 | 9.0 | 11.0 | 0.00 | 0.00 | 0.00 | 43 | 1003.9 |
| 20260505204633 | 89 | 281 | 4.0 | 7.0 | 0.00 | 0.00 | 0.00 | 43 | 1004.0 |
| 20260505203634 | 89 | 255 | 9.0 | 14.0 | 0.00 | 0.00 | 0.00 | 42 | 1004.2 |
| 20260505202633 | 89 | 260 | 5.0 | 9.0 | 0.00 | 0.00 | 0.00 | 43 | 1004.1 |
| 20260505201634 | 89 | 250 | 6.0 | 13.0 | 0.00 | 0.00 | 0.00 | 47 | 1004.1 |
| 20260505195733 | 89 | 223 | 10.0 | 15.0 | 0.00 | 0.00 | 0.00 | 49 | 1004.1 |
| 20260505193731 | 88 | 210 | 6.0 | 12.0 | 0.00 | 0.00 | 0.00 | 51 | 1004.5 |
| 20260505190832 | 87 | 226 | 8.0 | 14.0 | 0.00 | 0.00 | 0.00 | 53 | 1004.5 |
| 20260505185832 | 87 | 223 | 7.0 | 17.0 | 0.00 | 0.00 | 0.00 | 55 | 1004.5 |
| 20260505184834 | 86 | 225 | 8.0 | 15.0 | 0.00 | 0.00 | 0.00 | 56 | 1004.4 |
| 20260505182932 | 85 | 230 | 6.0 | 11.0 | 0.00 | 0.00 | 0.00 | 58 | 1004.7 |
| 20260505180034 | 84 | 231 | 11.0 | 15.0 | 0.00 | 0.00 | 0.00 | 61 | 1004.7 |
| 20260505175033 | 83 | 191 | 7.0 | 11.0 | 0.00 | 0.00 | 0.00 | 62 | 1004.7 |
| 20260505174131 | 84 | 215 | 11.0 | 18.0 | 0.00 | 0.00 | 0.00 | 61 | 1004.8 |
| 20260505173132 | 83 | 197 | 4.0 | 11.0 | 0.00 | 0.00 | 0.00 | 64 | 1005.0 |
| 20260505172133 | 82 | 192 | 4.0 | 10.0 | 0.00 | 0.00 | 0.00 | 67 | 1005.0 |
| 20260505171133 | 81 | 202 | 4.0 | 11.0 | 0.00 | 0.00 | 0.00 | 66 | 1005.0 |
| 20260505170133 | 81 | 209 | 8.0 | 15.0 | 0.00 | 0.00 | 0.00 | 65 | 1004.9 |
| 20260505164150 | 80 | 201 | 8.0 | 18.0 | 0.00 | 0.00 | 0.00 | 67 | 1004.8 |
| 20260505162231 | 79 | 202 | 7.0 | 16.0 | 0.00 | 0.00 | 0.00 | 70 | 1004.6 |
| 20260505160331 | 78 | 207 | 8.0 | 13.0 | 0.00 | 0.00 | 0.00 | 71 | 1004.3 |